GFSCGP_925_temp_000.txt.gz
Temp
23 22 21 22 23 24 24 24 23 24 25 24 23 22 24 20 19 18 16 15 15 15 16 17 18 18 18 17 17 18 17 16 15 15 15 15 15 15 14 15 14 14 14 14
22 22 22 23 24 24 23 23 22 23 23 22 23 22 21 20 20 19 17 15 15 15 15 16 17 17 18 18 18 18 17 17 16 15 15 15 15 14 13 14 14 14 13 13
21 23 23 23 24 24 23 23 22 22 23 23 23 21 22 22 20 19 17 17 15 14 14 15 16 17 18 18 18 18 18 18 17 16 16 16 16 14 13 14 13 14 14 14
22 23 24 23 24 23 22 23 23 23 22 20 22 18 21 21 20 18 16 15 15 14 14 14 15 17 17 19 18 18 18 18 17 16 16 16 15 14 14 14 14 14 15 15
24 22 23 23 24 23 23 23 23 23 21 21 21 17 20 20 21 19 16 16 15 14 14 14 15 17 18 19 18 18 18 18 18 17 16 16 16 15 15 15 15 15 16 16
23 23 23 24 24 23 24 24 20 18 17 17 20 19 19 20 21 21 18 16 15 14 14 14 17 18 18 18 18 18 18 18 18 17 17 17 17 16 15 16 16 17 18 17
23 23 24 25 24 24 23 19 18 17 17 18 19 19 20 22 21 21 19 17 15 15 14 13 13 15 17 18 19 18 18 18 18 17 17 17 18 17 17 16 15 15 16 16
22 22 23 25 24 23 21 19 18 20 18 20 20 20 22 22 21 20 19 18 16 15 15 13 14 16 17 18 19 18 18 18 18 18 18 18 18 18 18 17 16 15 15 16
20 22 24 24 25 24 22 21 21 20 19 19 19 20 21 23 21 19 16 16 16 15 13 13 14 16 18 18 19 18 18 18 18 18 18 18 18 18 18 18 17 16 15 15
21 21 23 25 24 24 23 22 22 17 21 21 19 21 20 22 24 19 16 15 15 15 13 13 14 16 18 19 19 18 18 18 18 18 18 18 18 18 18 18 18 18 17 17
20 21 22 22 22 22 22 21 19 19 18 18 16 18 19 23 22 20 17 16 16 16 15 14 14 17 19 18 18 19 18 19 18 18 18 18 18 18 18 18 18 19 19 19
21 20 20 21 22 22 23 21 20 19 20 18 18 20 21 20 19 19 18 17 15 16 16 14 15 16 17 18 18 19 18 19 18 18 18 18 18 18 18 18 18 18 18 19
20 19 19 20 20 21 23 20 19 18 17 18 19 20 20 21 22 20 18 16 16 16 14 13 13 14 16 17 18 19 18 19 19 18 18 18 18 18 18 18 18 18 18 19
23 19 21 22 22 20 22 20 20 20 17 19 19 23 22 23 24 21 17 16 16 16 16 15 14 14 16 18 18 19 18 19 19 18 18 18 18 18 18 18 18 18 18 19
21 20 20 22 23 22 23 22 20 20 21 21 22 20 23 23 23 21 17 16 16 16 16 16 16 14 15 17 18 19 19 19 18 18 18 18 17 18 18 18 18 18 18 18
18 20 19 21 21 22 23 22 21 22 21 22 22 22 21 21 21 21 18 17 18 17 17 17 17 16 15 16 18 19 19 19 19 18 18 18 17 17 18 18 18 18 18 18
19 18 17 19 20 20 20 23 21 21 20 21 21 22 20 19 20 20 19 18 18 18 18 18 17 17 17 17 19 19 20 19 19 18 18 18 17 17 18 18 18 18 18 18
18 17 16 17 18 18 21 21 23 23 21 20 22 20 21 22 22 23 19 18 18 19 19 19 18 18 18 19 19 20 20 20 19 18 18 17 17 17 17 17 17 18 18 18
16 15 16 16 14 19 21 19 20 21 21 21 22 21 21 22 23 22 20 20 19 19 20 20 20 19 18 19 21 20 19 20 19 19 18 18 18 17 17 17 17 17 17 17
14 16 17 12 17 18 19 20 20 22 21 19 21 19 20 20 21 23 22 19 19 18 21 20 20 19 18 19 20 19 19 18 19 19 19 19 18 18 18 17 17 17 17 17
14 14 17 13 15 16 19 19 21 20 20 19 20 21 17 20 23 23 23 23 19 19 20 21 20 19 19 19 19 18 18 18 21 21 20 19 19 19 18 18 18 17 17 17
16 14 15 13 16 19 18 19 21 20 21 20 18 18 19 21 20 21 20 22 21 18 19 20 20 19 19 19 19 18 17 22 21 20 20 19 19 19 19 18 18 18 17 17
18 17 17 17 18 18 19 19 19 18 20 19 18 17 19 19 19 20 19 19 19 19 19 20 20 19 19 19 19 18 19 20 20 20 20 20 20 19 19 19 18 18 18 18
18 16 17 18 19 18 18 20 18 18 20 18 19 19 17 19 19 19 19 19 19 19 19 20 20 19 18 19 19 20 19 20 21 19 19 20 19 19 19 19 19 19 18 18
18 16 16 18 18 17 18 19 18 17 18 18 18 18 18 18 19 18 19 19 18 19 21 20 20 20 19 19 19 20 19 20 19 19 19 18 19 19 19 19 19 19 20 20
15 16 19 19 16 18 19 19 17 16 16 17 18 18 18 18 18 18 18 18 18 19 20 20 21 20 20 20 20 20 19 20 19 19 18 18 18 18 17 17 18 19 21 22

GFSCGP_925_temp_003.txt.gz
Temp
26 27 26 27 27 27 27 27 27 26 27 26 27 27 27 27 23 23 22 21 20 20 20 18 18 17 17 17 17 16 16 17 16 15 15 16 15 13 13 13 14 14 13 14
25 26 27 27 26 26 26 26 26 26 26 26 27 26 27 26 25 24 23 21 21 20 20 19 18 17 17 17 17 17 17 17 17 16 15 15 13 13 14 14 14 13 13 13
27 28 25 26 25 25 26 26 25 26 25 25 25 26 27 28 24 23 23 22 21 21 20 20 18 18 18 18 17 17 18 18 18 17 15 15 14 14 14 14 13 14 13 14
27 26 25 25 26 27 26 26 26 25 25 26 25 25 26 28 26 24 23 21 21 20 20 20 19 18 18 18 18 18 18 18 18 17 16 15 15 15 14 13 14 14 14 14
27 25 25 25 26 26 27 26 26 25 25 24 25 24 27 24 26 28 27 22 21 21 20 20 19 19 19 18 17 18 18 18 18 17 16 16 15 14 14 14 14 14 15 15
28 25 27 28 27 26 27 25 23 22 23 24 26 25 27 27 28 28 27 23 21 21 20 20 19 19 19 18 17 17 18 18 18 18 17 16 15 15 15 14 14 14 16 16
25 26 26 27 27 25 26 25 25 24 24 25 23 24 27 29 28 27 28 24 21 21 21 20 20 19 19 18 18 17 17 18 18 18 17 16 16 16 15 15 15 14 16 17
25 24 26 26 27 27 26 26 25 23 24 26 22 25 28 28 26 24 24 24 21 20 21 21 20 20 19 19 18 18 18 18 18 18 18 17 17 16 16 15 14 15 16 15
25 25 25 27 27 28 25 25 27 26 23 24 26 26 27 27 26 25 23 20 20 20 21 21 20 19 19 19 18 17 18 18 18 18 18 17 17 17 17 16 16 16 16 16
25 25 26 27 27 26 26 26 25 24 24 23 25 25 27 29 29 26 22 21 20 20 21 21 21 19 19 19 18 17 17 18 17 18 18 17 17 18 18 17 17 17 17 17
26 27 24 25 26 27 25 26 24 25 25 25 24 26 27 28 27 26 24 22 21 21 21 21 21 20 19 19 18 17 17 17 17 18 18 18 18 18 18 18 18 18 17 17
26 26 25 25 25 27 28 27 26 26 24 25 25 26 28 26 26 25 23 22 21 22 22 22 21 20 19 19 18 18 17 18 17 17 17 17 18 18 18 18 18 19 19 18
24 26 24 24 23 23 25 26 26 25 25 25 26 27 26 25 26 24 23 22 21 21 21 21 21 21 20 19 19 19 18 18 17 17 17 17 18 18 18 18 18 18 19 19
25 25 25 25 25 26 25 24 25 26 26 26 26 28 28 27 27 24 23 22 22 21 21 21 21 21 20 20 19 19 18 18 17 17 17 17 17 17 18 18 18 18 18 19
25 24 26 27 27 26 27 26 25 25 26 26 27 26 29 29 28 27 25 22 21 22 22 22 21 21 21 20 19 19 19 18 17 17 17 17 17 18 18 18 18 18 18 18
20 24 25 25 26 27 26 27 27 26 27 27 28 27 28 27 26 25 23 22 22 22 23 22 22 21 21 20 19 19 18 18 17 18 18 17 17 17 18 18 18 18 18 18
22 23 23 24 25 26 24 27 27 26 27 27 26 28 26 25 26 27 23 23 23 23 23 23 22 21 20 20 19 19 19 18 18 18 17 17 16 16 17 18 18 18 18 18
20 22 23 24 23 22 25 27 27 27 26 26 28 29 26 29 28 28 26 24 24 23 23 23 23 21 20 20 20 20 19 18 18 18 17 17 17 17 16 17 17 18 18 18
20 21 20 22 22 25 23 23 25 25 26 25 27 28 27 27 26 27 26 26 25 23 24 23 22 21 20 20 20 20 19 19 19 19 18 17 17 17 16 16 17 17 17 17
18 20 22 19 22 23 27 24 23 26 26 26 26 27 26 26 27 29 26 26 25 24 23 23 22 21 20 20 20 19 19 19 19 19 19 18 17 17 16 16 17 17 17 17
19 19 20 20 21 22 23 24 24 25 27 26 25 26 25 26 28 28 26 26 26 24 23 23 22 21 20 19 19 20 20 20 20 20 19 18 17 17 17 17 17 17 17 16
21 20 21 20 21 21 22 22 25 27 23 25 24 25 24 26 27 26 27 27 25 24 23 22 22 21 20 19 19 20 20 20 20 20 19 18 17 17 16 17 17 16 16 16
19 22 23 22 23 22 23 25 25 24 26 23 25 24 25 25 26 25 25 25 26 25 23 23 22 22 20 19 20 21 20 20 20 20 19 18 17 17 16 16 16 15 15 16
21 20 21 22 24 23 22 23 24 22 23 22 24 24 23 24 24 25 25 24 25 26 23 23 23 22 20 19 20 21 21 21 20 20 19 18 18 17 16 17 16 17 16 17
22 22 21 22 24 22 22 23 23 23 22 23 22 24 24 24 24 24 25 24 25 25 24 23 22 22 21 20 20 21 20 20 20 19 19 19 19 17 17 17 17 18 18 18
19 21 21 22 24 24 25 24 23 23 22 23 23 23 23 24 25 24 25 24 24 25 24 23 22 22 22 21 20 20 21 20 20 20 19 20 20 18 19 18 18 18 19 21

GFSCGP_925_temp_009.txt.gz
Temp
30 30 29 31 32 33 33 33 33 34 35 33 33 32 33 34 34 34 34 33 32 31 30 27 25 24 23 22 21 21 20 20 19 20 19 19 18 19 17 15 14 14 15 16
30 29 32 32 33 32 33 32 32 33 34 33 32 31 33 33 34 34 34 33 32 30 29 27 24 23 23 22 22 21 21 20 19 20 19 18 18 18 17 16 15 15 16 15
30 31 32 33 32 32 32 32 32 32 33 33 32 31 33 34 34 34 34 33 33 30 28 27 25 24 23 23 22 21 21 20 19 19 20 19 18 18 16 17 17 15 15 16
31 33 33 32 32 33 31 33 32 32 31 30 33 30 32 33 33 34 34 33 32 31 29 27 26 24 23 23 22 21 21 20 20 19 20 19 18 17 17 16 16 15 15 15
31 32 33 32 32 34 32 33 33 32 30 30 31 30 32 33 33 33 34 34 32 31 29 27 26 24 24 23 22 22 21 20 20 19 19 20 18 17 16 16 16 16 15 16
32 34 34 34 34 33 33 32 32 32 31 29 30 31 32 33 33 33 34 34 32 31 29 28 26 25 24 23 23 22 21 21 20 20 19 19 18 17 17 16 16 16 15 15
32 33 34 34 32 33 32 31 29 28 29 28 32 31 32 33 33 33 33 33 32 31 29 27 26 26 24 24 23 22 22 21 21 21 20 19 19 17 17 16 16 16 16 15
30 30 33 34 32 32 31 31 30 27 29 31 32 30 32 34 34 33 33 33 31 30 29 28 26 26 25 24 23 23 22 22 21 21 20 20 20 19 18 16 16 16 16 15
31 31 33 33 33 33 32 30 32 30 31 31 32 33 33 33 33 33 33 31 30 29 28 27 27 26 25 24 23 23 23 22 21 20 20 20 20 19 18 17 17 16 16 16
33 31 34 33 33 33 33 33 30 31 28 28 31 31 31 32 33 32 32 31 29 29 28 28 27 26 25 24 23 22 22 22 22 21 21 20 20 20 20 19 19 17 17 17
32 32 32 33 31 31 32 32 31 31 31 29 29 31 33 33 33 32 32 31 29 29 29 28 28 26 25 24 24 22 22 22 22 21 20 20 20 20 20 20 19 17 18 16
32 31 31 31 33 33 33 32 32 30 29 31 31 32 34 33 33 33 33 31 30 30 29 29 28 26 26 25 24 23 23 23 22 21 21 20 20 20 20 20 19 18 18 17
32 30 30 31 31 32 31 32 32 31 31 30 30 31 34 33 33 33 33 32 31 30 30 29 28 27 26 25 25 24 23 23 23 22 21 20 20 20 19 19 19 19 19 18
30 31 29 30 30 31 30 31 32 31 30 30 31 32 32 33 33 33 33 32 31 30 29 29 28 28 27 26 25 25 24 23 23 23 21 20 20 20 20 20 20 20 20 19
30 29 30 31 33 32 31 31 32 31 31 30 31 31 33 33 33 33 33 32 31 30 30 29 28 28 27 26 25 25 24 24 23 23 22 20 20 20 20 20 20 20 20 20
30 28 30 30 32 32 31 31 31 32 32 31 31 32 34 34 34 34 33 32 31 31 30 30 29 28 28 26 26 25 25 24 23 23 22 21 20 20 20 20 20 20 21 21
28 29 28 28 31 31 31 31 31 31 32 32 31 32 34 33 33 34 33 32 32 31 31 30 29 29 27 26 26 25 25 24 23 23 22 21 21 21 20 20 20 20 20 20
28 28 29 29 30 27 31 33 33 32 32 32 32 33 33 33 34 34 34 33 32 32 31 31 30 28 27 27 26 25 25 24 23 23 23 22 22 21 21 21 20 19 19 20
29 28 28 28 29 30 31 32 32 31 31 32 32 33 33 34 34 34 34 34 33 32 32 31 30 28 27 27 26 25 25 24 24 24 24 23 22 22 21 21 20 19 19 19
29 29 28 28 27 27 31 33 33 33 30 33 33 33 33 33 32 33 34 35 34 33 32 32 30 28 27 26 26 25 25 25 25 25 24 23 23 22 21 21 19 19 19 19
26 27 27 27 27 30 32 33 32 29 30 33 33 33 33 32 34 34 35 34 34 33 32 31 30 29 27 26 26 25 25 25 25 25 25 24 23 22 21 20 19 19 19 20
25 26 27 28 27 28 33 33 30 31 33 33 33 33 33 33 34 34 34 34 33 33 32 31 30 29 27 26 26 25 26 26 26 26 25 24 23 22 21 20 19 19 19 20
26 28 27 29 29 31 32 32 32 32 32 33 33 33 33 33 33 34 33 33 33 33 32 31 31 29 27 26 26 26 26 26 26 26 25 24 23 22 21 20 19 19 19 20
25 29 28 28 28 29 31 32 31 32 32 33 33 33 33 33 33 33 33 32 32 33 32 31 31 30 28 27 26 26 26 26 26 26 25 24 23 22 21 20 20 20 20 21
22 22 26 27 29 28 30 31 31 31 32 31 32 33 33 33 33 33 33 32 33 32 31 31 30 30 29 27 27 26 26 26 26 26 25 24 23 22 22 21 21 22 21 22
20 19 23 25 27 27 28 30 30 30 31 31 31 32 33 33 33 33 33 32 32 32 32 31 30 30 30 28 27 27 27 26 26 25 25 24 24 22 23 22 22 22 23 22

GFSCGP_925_temp_015.txt.gz
Temp
25 24 24 25 26 27 27 27 27 29 31 31 30 30 30 29 30 30 28 27 27 25 22 23 23 23 23 22 22 21 21 20 20 19 19 19 18 18 17 17 16 15 15 15
24 23 26 27 28 27 27 27 27 29 31 30 30 29 29 30 30 28 28 27 27 23 22 22 21 23 23 22 22 21 21 20 20 19 19 18 18 18 17 17 16 16 16 16
24 25 27 27 27 27 27 27 27 27 29 30 30 28 29 31 31 30 29 28 24 23 22 21 21 21 22 22 22 21 21 20 19 19 19 19 18 18 18 17 17 16 16 16
24 26 27 26 26 27 26 29 29 29 28 26 31 25 28 29 28 29 30 25 24 23 22 21 20 19 22 22 22 21 21 20 20 19 19 18 17 16 16 17 17 16 16 16
25 26 26 27 27 28 27 30 29 29 28 27 28 25 26 29 28 28 30 26 24 23 22 21 20 21 22 22 22 21 21 20 20 19 19 19 17 16 17 17 16 16 16 16
26 28 28 27 29 29 30 29 29 29 28 24 26 25 27 26 28 30 31 27 25 23 22 21 21 22 22 22 22 21 21 20 20 20 19 19 18 17 17 17 16 16 16 16
26 27 28 29 28 29 29 27 25 23 24 21 28 27 26 27 29 30 26 25 24 24 22 21 20 20 21 22 22 21 21 20 21 20 19 19 18 17 17 16 16 16 16 16
24 24 28 30 29 28 28 28 25 23 22 25 28 26 28 29 30 28 28 26 24 23 22 21 20 20 21 22 22 22 21 21 21 20 19 19 18 18 17 17 16 16 16 16
24 25 29 30 31 30 28 27 28 26 27 25 26 29 29 29 28 28 26 25 23 22 21 21 20 20 22 22 22 22 21 21 20 20 20 19 19 18 18 17 16 16 16 16
25 24 28 30 30 30 30 29 27 23 24 22 26 26 26 28 28 27 25 24 22 21 21 21 21 20 22 23 23 22 22 21 21 20 20 20 19 19 18 17 17 16 16 16
26 25 26 29 28 28 29 29 27 25 24 22 23 23 26 27 27 26 25 24 23 22 22 21 20 22 23 23 23 22 22 22 21 21 20 20 20 19 18 18 17 17 16 17
26 23 24 26 30 31 29 27 25 26 24 25 23 24 29 26 26 26 25 25 22 22 21 21 20 21 21 22 22 22 22 21 21 21 20 20 19 19 18 18 17 17 17 16
27 25 22 26 26 29 29 29 28 25 24 24 24 23 27 28 26 27 25 25 24 23 22 21 21 20 21 21 22 22 22 22 21 21 20 20 19 19 18 18 18 17 16 17
26 24 25 23 27 28 29 29 29 25 23 25 26 27 28 28 27 25 26 25 24 24 24 22 22 20 21 22 22 22 23 22 22 20 20 20 19 19 19 19 18 18 17 17
21 25 25 27 28 28 30 30 29 28 26 27 27 27 27 28 27 26 26 25 25 24 23 23 22 20 21 22 23 23 23 22 22 20 20 20 20 19 19 19 19 18 18 18
17 24 26 26 28 29 29 30 30 30 28 27 28 28 28 28 28 26 27 27 26 26 25 24 23 22 21 22 23 23 23 23 22 20 20 20 20 20 20 20 20 19 18 18
15 18 24 24 27 27 26 30 30 30 28 29 27 28 30 29 28 26 27 28 27 27 26 25 24 23 22 23 24 23 23 23 22 21 20 20 20 20 20 20 20 19 19 19
15 16 20 24 25 23 27 29 31 30 29 28 28 28 28 29 30 27 29 28 27 27 27 25 24 23 23 25 25 24 23 23 23 21 20 20 20 20 20 20 20 19 19 19
17 17 18 22 23 27 28 29 29 28 28 30 28 28 30 29 29 31 29 28 27 27 27 25 25 24 25 24 25 24 23 23 23 21 21 20 20 20 20 20 20 19 19 18
20 19 19 22 21 23 26 29 30 28 27 27 27 27 28 27 28 26 27 28 27 26 27 25 25 25 24 24 25 24 22 23 23 23 21 21 21 20 20 19 19 19 19 19
21 20 20 21 21 24 27 29 30 26 24 27 28 26 27 26 25 27 27 28 27 27 26 26 25 24 24 24 25 23 23 22 23 23 22 22 21 21 20 19 19 19 19 19
18 21 21 21 23 24 29 29 27 25 28 26 26 26 26 26 27 28 27 26 27 27 26 26 25 24 24 24 24 23 23 24 24 24 23 22 22 21 20 19 19 19 19 19
17 16 16 19 21 24 26 29 26 25 26 28 27 26 26 26 27 27 28 26 27 27 26 27 25 23 23 24 24 23 24 24 24 24 24 23 22 21 20 19 19 19 19 18
14 13 15 16 18 20 23 20 21 25 27 28 27 26 26 26 27 27 26 26 27 27 27 27 25 24 23 23 24 24 25 25 25 25 23 23 22 21 20 20 19 19 19 18
12 12 15 16 17 17 18 18 20 20 21 27 28 27 27 26 26 26 26 28 29 27 28 27 25 24 24 24 23 24 25 25 25 25 22 21 21 21 20 19 19 19 19 19
12 13 14 14 16 15 15 17 19 19 19 18 16 26 26 27 27 27 26 27 27 26 28 27 26 25 24 24 24 24 25 25 25 24 21 20 20 20 19 19 18 18 19 19

GFSCGP_925_temp_021.txt.gz
Temp
20 19 19 21 22 23 23 21 21 23 25 25 24 24 25 26 26 26 25 23 23 22 20 18 18 20 20 20 20 20 20 19 19 19 19 18 18 18 18 17 17 16 16 15
20 20 22 23 23 22 22 21 22 24 25 24 24 24 25 25 26 25 25 25 22 19 17 17 17 18 18 19 20 20 20 19 19 19 19 18 18 17 17 17 16 16 16 15
21 23 24 23 23 22 22 21 22 23 24 25 23 24 24 26 26 25 24 24 22 20 17 17 17 17 18 19 20 20 19 19 19 19 18 18 18 17 16 16 16 16 15 15
21 24 23 23 22 23 21 23 24 24 22 21 23 20 23 24 25 26 26 24 22 18 17 18 17 15 17 19 20 20 19 19 19 19 18 18 16 15 15 16 16 16 16 16
20 22 23 23 23 24 23 24 23 23 22 22 23 21 22 23 25 24 25 25 20 17 18 17 16 17 19 19 19 19 19 19 19 19 18 18 17 17 16 16 16 15 15 15
22 24 24 24 25 24 24 24 22 22 21 20 23 21 22 23 25 26 27 23 18 17 16 15 17 18 18 19 19 19 19 19 19 19 18 18 17 17 16 16 15 15 15 15
21 22 23 24 23 23 23 19 18 18 18 19 23 21 24 24 24 25 26 21 18 17 16 17 17 15 16 18 19 19 19 19 18 18 18 18 18 17 16 16 15 15 15 15
20 20 22 24 23 22 22 22 18 18 18 21 22 22 24 25 26 25 24 20 18 16 17 17 17 16 16 18 18 19 19 19 18 19 18 18 18 17 16 16 15 15 15 15
20 21 24 25 25 24 22 21 23 21 22 21 21 23 25 27 25 23 20 19 18 17 17 17 16 16 17 18 19 19 19 19 19 19 18 18 18 17 17 16 16 16 16 15
21 20 23 24 25 24 22 23 22 19 20 21 21 23 24 27 25 22 20 18 18 16 16 17 16 16 17 19 20 19 19 20 19 19 19 18 18 17 17 17 16 16 16 16
20 20 22 23 22 23 21 22 21 21 20 19 20 21 21 25 23 22 20 19 18 17 17 17 16 17 18 19 19 19 19 19 19 19 19 18 18 17 17 17 16 16 16 17
14 17 19 21 24 25 24 22 22 22 20 21 20 22 25 23 22 23 21 19 17 17 18 17 16 16 16 18 18 19 19 19 19 19 19 18 18 17 17 17 16 16 16 16
13 15 18 19 22 23 23 23 24 21 19 20 23 24 24 22 22 23 20 19 18 17 16 16 15 16 16 17 18 18 19 19 19 19 19 18 18 17 17 17 16 16 16 16
13 12 17 20 22 23 22 24 22 23 23 23 23 25 25 23 22 22 21 19 18 18 18 17 16 16 17 17 18 19 19 19 19 19 18 18 18 17 17 17 16 16 17 17
11 11 14 18 22 23 24 24 24 23 24 23 25 24 24 22 21 22 21 18 18 18 18 18 17 16 16 17 18 19 19 19 19 19 19 19 18 18 17 17 16 16 16 16
11 11 13 17 21 23 23 24 25 25 25 25 23 24 24 23 23 21 21 20 20 20 20 20 19 17 16 17 18 19 19 19 19 19 19 19 18 18 18 17 17 16 16 16
12 11 13 14 21 22 21 23 23 25 25 26 24 24 22 23 24 22 21 22 22 21 21 20 19 18 18 18 19 19 19 20 19 19 19 19 19 18 18 17 17 17 17 16
12 11 12 12 17 18 23 24 25 23 25 24 25 24 24 24 25 24 23 22 22 22 21 21 20 19 19 19 19 20 20 19 19 19 19 19 19 18 18 18 18 17 17 16
12 11 11 11 15 20 23 24 24 22 23 24 25 24 24 24 22 24 23 23 23 23 22 22 21 20 19 19 19 20 18 18 18 18 19 19 19 18 18 18 18 17 17 16
14 12 12 13 14 18 21 20 25 24 24 23 23 22 23 23 25 22 21 23 23 23 22 22 22 20 19 19 19 18 17 17 17 18 19 19 19 19 18 18 18 18 17 17
11 11 11 13 13 17 15 16 19 24 22 16 21 23 21 25 27 25 23 24 24 23 21 22 21 20 20 19 19 18 17 17 19 19 19 19 19 19 19 18 18 18 17 17
10 12 12 13 14 18 16 16 17 14 15 16 17 21 22 25 24 22 23 23 23 22 21 22 21 20 20 20 19 18 17 19 19 19 19 19 19 19 18 18 18 18 18 17
11 10 11 12 14 14 14 14 14 14 14 16 16 16 19 23 22 21 22 23 23 23 23 22 21 20 19 19 20 19 19 19 19 19 19 19 19 19 19 18 17 17 17 17
10 11 11 11 15 14 13 14 14 14 14 15 17 16 17 22 22 22 23 23 23 23 22 22 21 20 19 19 20 21 19 20 20 19 19 19 19 18 19 18 18 17 17 17
9 10 10 11 13 13 14 14 14 14 15 15 17 17 17 20 22 23 23 24 24 23 23 22 21 20 20 20 20 20 20 20 19 19 19 18 18 19 18 18 18 18 18 18
10 10 11 11 13 11 12 13 14 14 14 15 15 17 17 18 22 22 23 24 24 23 23 22 22 21 21 20 20 20 21 20 19 18 18 18 17 17 17 17 17 17 18 18

GFSCGP_925_temp_024.txt.gz
Temp
18 18 18 20 21 22 22 21 21 23 24 23 22 21 23 25 23 22 23 24 23 21 20 19 18 19 19 20 20 20 19 19 18 18 18 18 18 18 17 17 16 16 16 15
18 19 21 21 21 21 21 21 21 23 23 23 22 21 22 23 23 23 24 24 22 21 19 16 15 16 17 18 19 19 19 19 18 18 18 18 18 17 17 16 16 16 16 15
19 21 22 21 21 21 21 21 22 23 22 23 22 22 23 24 24 23 23 22 21 20 18 15 15 15 16 17 18 19 19 19 18 18 18 18 17 16 16 16 16 16 16 15
19 22 22 21 21 22 20 22 23 22 21 19 21 18 22 23 23 23 24 23 22 21 15 15 14 14 16 17 19 19 19 19 18 18 18 18 17 16 16 16 15 15 15 15
18 21 21 21 21 22 22 23 22 22 20 20 21 19 21 22 23 23 24 24 22 17 15 15 15 15 17 18 19 19 19 18 18 18 18 17 17 16 16 16 15 15 15 15
20 22 22 23 23 23 23 22 20 19 18 17 20 20 21 21 24 24 25 25 19 15 14 14 15 16 17 18 18 18 18 18 18 18 18 18 17 16 16 15 15 15 15 15
19 20 22 22 21 21 21 19 17 17 17 17 21 19 22 22 22 24 24 23 17 15 15 15 16 15 15 16 17 18 18 18 18 18 18 17 17 16 16 15 15 14 15 15
17 18 21 22 22 21 21 19 17 18 17 19 21 19 21 23 25 23 23 22 16 14 15 16 16 15 15 16 17 18 18 18 18 18 17 17 17 17 16 15 15 15 15 15
18 19 22 23 23 23 19 20 19 19 19 18 19 21 24 23 24 23 21 17 15 14 14 15 15 15 15 16 18 18 18 18 18 18 18 17 17 17 16 16 15 15 15 15
19 19 22 23 23 24 22 21 20 18 19 19 20 22 23 25 26 24 20 18 15 14 15 16 15 15 16 18 19 18 19 19 18 18 18 17 18 17 16 16 16 15 15 15
15 18 20 21 21 21 18 20 19 19 16 17 19 20 20 25 25 23 20 17 15 15 16 16 15 15 17 18 18 18 18 18 18 18 18 17 18 17 16 16 16 15 15 15
13 14 18 20 21 23 23 20 19 21 19 18 19 20 23 22 23 22 21 18 15 15 16 16 15 14 15 17 17 18 18 18 18 18 18 17 17 17 16 16 16 16 15 15
13 12 16 19 21 21 22 21 20 17 17 20 20 19 23 23 24 21 19 17 16 15 15 14 14 14 15 16 17 17 18 18 18 18 18 17 17 17 16 16 16 16 15 15
13 11 12 17 19 20 20 22 22 19 17 18 23 23 25 23 22 20 19 17 15 16 16 16 15 15 15 16 17 17 18 18 18 18 17 17 17 16 16 16 16 16 16 15
11 10 12 13 16 17 20 22 22 22 22 21 22 22 23 22 21 20 18 16 16 16 16 17 16 15 14 15 17 17 18 18 18 18 17 17 17 17 16 16 16 16 16 16
11 10 11 13 17 18 19 20 22 23 22 22 23 22 22 23 21 20 19 18 18 18 18 18 17 16 15 16 17 18 18 18 18 18 18 17 17 17 17 16 16 16 16 16
10 10 10 12 14 16 18 20 20 22 23 23 22 25 22 23 22 20 19 20 20 19 19 18 18 17 16 16 17 18 19 18 18 18 18 17 17 17 17 16 16 16 16 16
11 11 10 11 13 17 20 22 22 21 22 23 23 23 23 23 22 21 21 21 20 19 19 19 18 17 17 17 18 19 19 18 18 18 18 17 17 18 17 16 16 16 16 15
12 12 11 11 12 16 20 16 17 20 21 21 22 24 23 23 22 23 21 21 21 20 20 20 19 18 17 18 19 19 18 18 17 18 18 18 17 18 17 17 16 16 16 15
12 12 12 11 12 16 15 16 16 15 20 14 15 20 22 22 22 23 20 21 20 19 20 20 19 18 17 18 19 18 17 17 16 18 18 18 18 18 18 18 17 16 16 16
10 9 10 11 11 13 14 14 15 20 16 13 14 15 15 22 25 26 21 21 21 21 19 20 19 18 18 18 18 17 17 16 19 19 19 18 18 18 18 18 17 17 16 16
11 11 10 11 12 14 13 14 13 13 12 13 13 14 14 16 21 22 21 22 20 20 19 20 19 18 18 18 18 17 16 20 19 18 19 18 18 18 18 18 17 17 16 16
11 11 11 11 13 14 13 14 14 13 12 13 13 14 14 15 16 20 20 20 20 21 21 21 20 18 17 18 18 17 18 19 18 18 19 19 18 18 18 17 17 16 16 16
10 10 11 11 14 13 13 15 15 13 13 13 14 14 14 15 16 20 20 20 21 21 21 21 20 18 17 17 19 20 19 19 19 18 18 18 18 17 17 17 18 17 16 16
9 10 10 11 12 13 15 13 13 13 13 14 14 15 15 15 16 19 20 20 21 21 21 20 20 19 18 18 19 19 19 19 18 18 18 18 18 17 17 17 17 17 18 18
10 10 10 11 11 11 12 13 13 12 13 13 14 14 16 15 15 19 20 21 21 21 20 21 20 20 18 18 19 19 20 20 18 17 17 17 17 16 17 16 16 16 17 17

GFSCGP_925_temp_027.txt.gz
Temp
20 20 22 23 23 24 25 25 26 26 27 26 27 26 27 28 27 27 27 28 27 27 28 22 20 19 18 18 18 18 18 18 18 17 17 17 17 17 16 16 16 15 15 15
20 21 24 24 24 22 23 24 25 26 26 25 26 26 27 27 27 28 28 28 28 28 26 21 18 18 18 18 18 17 18 19 18 18 17 18 17 17 16 16 15 15 15 15
22 23 24 23 23 22 23 24 24 25 25 25 25 25 26 28 27 28 29 28 27 27 26 20 19 18 18 18 17 18 18 18 18 18 18 18 17 16 16 16 15 15 15 15
21 24 23 22 22 23 22 24 25 24 23 24 25 24 26 27 27 28 28 28 28 27 22 20 19 18 18 18 18 18 18 18 17 18 17 17 18 18 16 15 15 15 15 14
20 21 22 22 23 23 23 25 24 23 22 22 24 23 25 26 26 28 29 29 28 24 22 20 20 19 19 18 18 18 17 17 17 18 17 17 17 16 15 15 15 15 15 15
22 23 23 24 24 24 24 24 23 23 23 22 24 24 25 27 27 28 29 30 24 22 20 20 19 19 19 19 18 18 17 17 17 17 17 17 16 16 16 16 16 15 14 14
20 21 23 24 23 24 24 23 21 21 22 22 25 24 24 27 28 27 29 29 24 21 20 20 19 20 19 19 18 18 18 17 17 17 17 16 16 16 16 16 15 15 15 15
19 19 22 24 23 23 23 24 23 21 22 24 24 23 25 27 28 28 28 27 23 21 21 20 21 21 20 19 18 18 18 18 17 17 17 16 16 16 16 16 15 15 15 15
20 21 23 24 24 25 23 23 26 24 22 24 25 23 25 27 27 26 27 26 23 21 20 21 21 20 20 19 19 18 18 18 17 17 17 16 16 16 16 15 15 15 15 15
18 20 23 23 25 25 24 25 22 24 23 22 24 24 27 28 28 28 27 25 22 21 20 21 21 20 20 19 19 18 18 18 18 17 17 17 16 16 16 15 15 15 15 15
16 18 22 24 23 24 23 23 24 25 24 24 24 26 27 29 28 29 29 25 22 21 21 21 21 20 20 19 19 18 18 18 18 17 17 17 17 16 16 15 15 15 15 15
14 16 20 23 24 25 24 24 24 24 22 25 24 26 26 27 27 27 26 23 22 22 22 22 22 21 20 19 19 18 18 18 18 18 17 17 16 16 16 15 15 15 15 15
11 16 20 21 22 24 24 24 24 24 24 23 25 26 26 26 27 26 26 23 21 21 21 22 22 21 21 20 20 19 18 19 18 18 17 17 16 16 16 15 15 15 15 15
11 13 17 21 22 22 22 24 24 24 24 24 25 27 29 28 28 27 24 23 22 22 21 22 21 22 21 20 20 20 19 18 18 18 17 17 17 16 16 15 15 15 15 15
9 13 14 16 16 17 19 23 24 23 24 24 25 26 28 28 29 27 24 23 22 22 22 22 22 22 21 20 20 20 19 18 18 18 18 17 16 16 16 16 15 15 15 15
12 12 14 17 18 19 19 21 23 24 24 25 25 26 28 28 26 26 24 23 23 23 23 22 22 22 21 21 20 20 19 18 18 18 18 17 17 17 16 16 16 16 15 15
12 12 13 18 17 19 20 22 22 23 25 25 25 26 27 27 28 27 26 24 25 24 23 23 22 22 21 21 20 20 19 18 18 18 18 17 17 17 16 16 16 16 15 15
13 13 13 16 17 19 23 21 24 23 24 25 26 27 28 28 30 30 28 26 26 25 24 23 23 22 21 21 20 20 19 18 18 18 18 18 18 17 17 16 16 15 15 15
13 13 14 15 17 20 21 17 17 23 23 18 22 26 27 28 28 29 27 27 26 25 25 24 23 22 20 20 20 20 19 19 19 19 19 18 18 17 17 17 16 15 15 15
14 14 13 14 16 20 16 17 17 17 22 16 16 17 18 20 26 30 31 27 26 25 25 24 22 22 20 20 20 20 20 19 19 19 19 19 18 18 17 16 16 15 15 15
11 10 11 14 15 17 15 16 17 20 19 16 16 16 17 19 27 23 21 27 26 25 24 23 22 21 20 20 19 20 20 20 20 20 19 18 18 18 17 16 15 15 15 15
12 12 12 13 14 17 15 17 17 16 15 15 16 16 16 17 18 19 21 23 25 24 24 23 22 22 20 19 20 21 20 20 20 19 19 18 18 18 17 16 15 15 15 15
12 12 12 14 16 15 14 15 16 16 15 16 15 16 16 17 18 19 20 22 25 25 24 24 23 21 20 19 20 21 20 20 19 19 19 18 17 17 17 16 16 16 16 17
11 11 12 13 14 14 14 15 15 15 15 16 16 16 17 17 18 19 21 22 25 25 25 24 23 22 20 20 20 21 21 20 20 19 19 18 18 17 17 17 17 17 17 18
9 10 11 12 14 14 14 14 14 14 16 16 17 17 17 18 19 19 20 22 25 25 24 24 24 23 22 20 21 21 20 20 20 19 19 18 18 17 17 17 17 18 17 18
10 11 12 13 13 12 11 13 14 14 15 16 17 17 18 18 18 19 20 23 25 25 24 24 23 23 22 21 21 21 20 20 20 19 18 19 19 18 18 18 16 16 17 18

GFSCGP_925_temp_030.txt.gz
Temp
22 23 24 26 26 28 29 29 29 30 31 30 30 31 32 33 32 32 32 32 32 32 33 32 27 25 24 22 22 22 21 20 21 21 22 22 22 22 21 20 19 18 18 17
23 23 27 27 28 27 27 28 29 30 31 30 29 30 31 32 32 32 32 32 32 32 33 32 25 23 23 22 21 21 20 20 21 21 22 22 22 22 21 20 19 18 18 17
24 25 26 27 27 27 26 26 27 28 30 30 29 28 29 31 32 32 32 32 32 33 32 31 25 24 23 22 21 21 20 20 21 21 20 20 20 20 20 20 20 18 17 17
23 26 27 27 27 27 26 27 27 27 27 27 29 28 29 31 31 31 32 32 33 33 33 29 26 24 23 22 21 21 20 20 20 20 21 21 22 23 22 20 20 18 17 17
22 24 26 27 27 28 27 28 27 27 26 27 27 27 28 30 29 30 32 32 33 33 31 28 26 24 23 22 22 21 20 20 19 20 21 20 21 21 20 20 18 18 17 16
22 26 26 27 28 28 28 27 27 27 27 25 26 27 27 29 30 31 33 33 34 30 28 27 25 23 23 23 22 21 20 20 19 20 19 20 19 20 20 20 19 18 17 16
22 23 25 27 27 27 27 26 25 24 25 25 27 27 27 29 31 31 32 33 32 29 28 26 25 25 23 23 22 21 21 20 20 20 19 19 19 19 19 19 18 18 16 16
20 21 23 26 26 26 26 26 27 24 25 27 28 26 29 30 31 31 32 33 31 29 28 26 26 25 24 23 22 22 21 21 20 20 20 19 19 20 20 19 19 19 17 17
21 22 26 26 27 28 26 27 29 28 28 28 29 29 29 29 30 32 32 32 30 29 27 26 26 25 24 23 22 22 22 21 21 20 20 19 19 19 19 18 18 17 17 18
19 20 25 25 27 28 28 28 26 28 25 25 28 29 28 30 31 31 31 32 31 28 27 27 26 25 24 23 22 22 22 21 21 20 20 20 19 19 19 18 18 17 17 18
17 19 23 25 25 26 27 27 27 28 28 27 27 29 30 30 32 32 33 32 30 27 27 27 26 25 24 23 23 22 22 21 21 21 20 20 20 19 19 18 18 17 17 18
18 18 20 24 27 28 28 27 27 26 25 28 29 29 29 31 31 33 33 31 29 28 28 27 27 25 25 24 23 22 22 22 21 21 20 20 20 19 19 18 18 17 17 18
12 18 20 23 26 26 27 27 27 28 29 27 27 28 31 31 31 31 31 29 28 28 28 27 27 26 25 24 23 23 22 22 22 21 21 20 19 19 18 18 18 18 17 18
12 15 20 23 25 26 26 27 27 27 27 28 28 29 31 31 32 31 30 28 28 28 27 28 27 27 26 24 24 23 23 22 22 21 21 20 20 19 19 18 18 18 18 18
14 17 19 20 21 21 24 26 27 26 27 27 29 28 31 32 31 31 30 29 28 29 28 27 27 27 26 25 24 24 23 22 22 22 21 20 19 19 19 19 18 18 18 17
14 15 18 19 21 22 22 24 27 27 27 27 28 28 30 32 32 31 29 29 29 29 28 27 27 27 26 25 24 24 23 22 22 22 21 20 20 19 19 18 18 18 16 17
12 14 17 19 22 22 22 24 25 27 27 27 27 28 30 30 30 31 31 29 30 30 29 28 27 27 26 25 24 23 23 22 22 22 21 20 20 20 19 19 18 17 17 16
13 13 16 21 22 20 24 25 26 26 27 28 28 29 30 30 31 32 33 31 30 30 29 28 28 27 25 25 24 24 23 22 22 22 22 21 21 20 20 19 19 17 16 16
16 14 14 19 21 24 24 21 23 26 25 23 25 28 29 30 30 30 32 32 32 31 30 29 28 26 25 25 24 24 23 23 23 22 22 21 21 21 20 20 19 18 17 17
16 15 13 18 20 22 20 20 21 21 24 20 21 22 23 25 27 30 26 28 32 32 30 29 27 26 25 25 24 24 24 23 23 23 22 22 22 21 20 19 18 18 18 18
14 14 13 15 20 20 19 20 21 21 20 19 20 20 21 22 26 24 24 25 28 31 30 28 27 26 25 24 24 24 24 24 23 23 23 22 21 21 20 19 18 18 19 18
14 13 14 14 18 18 18 20 20 18 19 19 20 20 20 21 22 23 24 25 27 29 30 28 27 27 25 24 24 24 24 24 24 23 23 22 21 21 20 19 19 19 19 18
13 13 14 16 14 16 16 17 18 18 18 19 19 20 20 21 22 23 24 25 26 29 29 28 28 27 25 24 24 25 24 24 24 23 23 22 21 20 20 19 19 19 19 20
14 14 13 16 17 17 15 16 17 17 18 19 20 20 21 21 22 23 24 26 26 28 29 28 28 27 26 25 25 25 24 24 24 23 22 22 21 21 20 20 20 21 21 21
9 10 13 16 17 17 15 15 16 16 17 19 20 20 21 22 23 23 24 25 26 28 29 28 28 28 26 25 25 25 25 24 24 23 22 22 21 20 20 21 21 21 21 22
11 12 12 12 15 15 15 15 16 15 16 18 19 20 21 22 23 23 24 25 26 28 29 29 28 28 27 26 26 26 25 24 24 23 23 22 23 21 21 21 20 19 20 19

GFSCGP_925_temp_033.txt.gz
Temp
24 23 25 27 28 30 30 30 31 32 33 32 32 33 34 34 34 34 35 35 34 34 35 35 34 30 28 27 25 24 24 24 23 23 23 24 24 23 23 23 22 21 20 20
24 23 27 28 29 29 29 29 30 32 33 33 33 32 33 34 33 34 34 35 34 34 35 35 33 28 27 25 24 23 23 22 22 23 24 25 24 24 24 24 23 21 20 19
23 26 27 28 28 29 29 29 29 30 31 32 32 31 32 33 34 34 34 34 34 34 34 35 32 28 26 25 24 23 22 21 22 24 24 23 23 23 23 23 22 21 19 18
23 26 27 27 28 29 28 30 30 30 30 29 32 30 31 32 33 33 34 34 34 34 35 35 32 28 26 25 23 22 22 21 23 22 23 23 24 25 24 23 23 21 20 19
22 24 25 26 28 29 29 31 30 30 29 29 30 29 30 32 32 33 33 34 34 34 35 35 31 28 26 24 23 22 22 22 21 22 23 22 23 24 23 23 21 20 18 18
23 26 26 27 28 30 30 30 30 30 29 28 29 29 30 31 32 33 33 34 35 35 35 33 30 27 26 24 23 22 22 22 21 22 22 21 22 22 22 22 21 19 17 17
22 23 26 27 27 29 30 29 27 27 28 28 30 29 30 32 32 33 33 34 35 35 33 31 28 27 26 25 24 23 22 22 21 21 21 21 21 21 21 21 19 19 18 17
21 21 24 27 27 27 28 29 28 26 27 29 31 29 31 33 33 33 34 34 35 33 32 30 29 28 26 25 24 24 22 22 22 22 22 21 21 21 21 20 19 18 19 18
20 22 26 26 28 28 28 29 30 29 31 31 32 33 33 33 33 32 33 34 34 32 31 30 29 28 26 25 24 24 23 23 22 22 22 21 21 21 21 20 18 19 18 18
18 19 24 26 27 28 28 31 28 30 27 28 31 31 32 32 33 33 33 34 33 32 30 30 29 28 26 25 24 24 23 23 23 22 22 22 21 21 21 19 18 19 19 20
17 17 22 26 26 26 28 29 29 29 30 29 29 31 34 33 33 33 34 34 33 31 30 30 29 27 26 25 25 24 24 23 23 23 22 22 21 21 21 19 19 18 19 20
19 16 18 23 28 28 29 29 29 29 28 30 30 31 33 33 33 34 35 34 34 31 31 30 29 28 27 26 25 24 24 24 23 23 23 22 21 21 20 20 19 18 19 20
15 17 18 20 23 27 28 29 30 29 30 29 30 31 33 33 33 34 34 34 32 31 31 30 29 28 28 26 25 25 24 24 24 23 23 22 21 20 19 19 19 19 19 21
11 15 16 17 22 27 27 29 30 29 29 30 30 31 32 32 33 33 32 31 31 31 30 30 29 29 28 27 26 25 25 24 24 24 23 22 20 20 20 19 19 18 19 19
10 15 18 18 17 21 28 28 29 29 29 30 31 31 32 33 33 33 32 31 31 31 31 30 29 29 28 27 26 26 25 24 24 24 23 22 20 21 20 20 19 19 18 19
11 14 18 19 16 20 26 28 29 30 30 31 32 30 34 33 34 33 32 31 31 31 31 30 30 29 28 27 27 26 25 24 24 24 23 22 21 21 20 20 20 18 18 18
14 14 19 15 17 20 23 27 29 29 30 30 29 30 32 32 32 32 32 32 32 32 32 30 30 29 28 27 27 26 25 24 24 24 23 23 21 20 19 20 19 18 17 17
15 14 17 17 16 17 25 28 28 29 30 30 30 30 32 32 33 33 34 32 32 32 32 31 30 29 28 27 27 26 25 24 24 24 23 23 23 21 20 19 19 17 17 16
17 15 14 16 17 23 23 26 27 28 28 29 29 31 31 32 32 31 30 32 33 33 33 31 30 29 28 27 26 26 25 25 25 25 24 24 24 21 20 20 18 18 18 17
19 17 14 17 17 18 17 24 25 26 24 23 25 26 27 28 29 27 27 29 30 34 33 32 30 29 27 27 26 26 26 25 25 25 24 24 24 23 22 21 18 18 18 17
17 17 16 17 19 19 20 23 24 24 19 22 23 24 24 25 27 25 26 28 29 31 33 31 30 29 27 27 26 26 26 26 26 25 25 24 23 22 22 20 19 18 18 17
16 15 17 18 18 16 19 22 22 19 21 22 22 23 23 23 24 25 27 28 28 30 33 31 30 29 27 27 26 26 26 26 26 25 25 24 23 23 21 20 20 19 18 18
13 15 17 18 15 15 18 19 19 20 20 21 22 22 23 23 25 26 26 27 28 30 32 32 30 29 27 27 26 26 26 26 26 26 25 24 22 23 21 20 20 19 19 21
11 14 16 18 14 17 18 19 19 19 20 20 22 22 23 24 25 26 27 28 29 30 31 31 31 30 28 27 26 26 26 26 26 25 25 24 23 23 21 21 22 23 23 23
11 12 15 14 13 17 17 17 18 19 20 20 21 22 23 24 25 26 27 27 29 30 31 31 31 30 28 27 27 27 26 26 26 25 24 24 23 22 22 22 22 23 23 23
13 13 12 11 13 14 16 18 18 18 19 19 20 21 23 24 24 26 26 27 28 29 31 31 31 30 29 28 27 27 27 26 26 25 24 24 24 22 23 23 22 21 21 21

GFSCGP_925_temp_036.txt.gz
Temp
23 22 23 24 26 28 29 29 29 31 33 32 32 32 33 34 35 34 34 34 33 34 35 35 35 33 30 29 27 26 26 25 24 23 23 23 23 23 23 23 23 23 22 21
22 23 25 26 27 27 28 28 29 31 32 32 32 32 34 34 34 34 34 33 33 34 34 34 34 29 28 27 26 24 24 24 23 23 23 23 24 23 23 23 23 22 21 20
22 24 25 26 26 27 28 28 28 29 31 32 32 31 32 34 34 35 35 34 34 33 33 33 33 28 27 25 24 24 24 23 23 23 23 24 24 24 23 23 23 22 21 20
22 24 25 25 25 27 27 29 29 30 29 29 31 29 31 32 33 34 34 34 34 34 33 33 32 27 26 25 24 23 23 22 22 23 23 23 23 23 24 24 22 21 20 19
21 23 24 24 26 27 27 29 30 30 29 29 30 29 30 32 32 33 34 34 34 34 34 34 29 27 26 25 24 22 22 21 23 23 23 23 23 24 24 23 22 21 20 19
22 24 24 25 26 27 29 28 29 29 30 28 29 29 29 31 32 33 34 34 34 35 34 34 29 27 26 24 23 22 21 22 22 22 23 22 23 22 22 22 21 20 19 18
21 22 23 25 25 27 27 27 26 26 27 27 30 29 30 32 33 33 33 34 34 34 34 30 28 27 25 24 23 22 22 21 21 22 22 22 21 21 21 21 20 20 19 18
17 18 22 24 25 25 26 27 27 24 26 28 30 28 31 33 34 34 34 34 34 34 32 30 28 27 26 24 23 23 22 22 22 22 22 21 21 21 21 20 20 19 18 18
15 18 23 24 25 26 26 26 28 28 29 29 31 32 32 33 34 34 33 33 33 32 30 29 28 26 26 24 23 23 22 22 22 22 22 21 21 21 21 20 19 19 18 18
15 15 20 22 25 26 26 28 26 28 26 26 30 31 32 33 33 34 33 33 33 31 30 29 28 26 26 25 24 23 23 23 22 22 22 22 22 21 20 20 19 18 19 19
16 14 17 21 24 24 26 26 27 28 29 28 28 30 34 33 34 33 33 33 33 31 30 29 28 27 26 25 24 24 23 23 23 23 22 22 21 21 20 19 19 19 19 20
16 14 16 19 24 26 27 27 27 27 27 29 30 30 33 33 34 34 34 34 32 31 30 29 28 27 26 25 25 24 24 24 23 23 23 22 21 20 20 19 18 18 19 20
12 15 16 18 21 23 23 27 28 28 29 28 28 30 33 33 33 34 34 34 32 31 30 29 28 27 27 26 25 24 24 24 23 23 22 22 21 20 19 19 19 19 19 20
12 12 15 16 16 15 19 25 28 28 28 28 30 31 32 33 33 34 34 32 31 30 29 29 28 28 27 26 26 25 25 24 24 24 23 21 20 20 19 19 19 19 19 20
10 12 15 17 15 14 14 19 27 28 29 28 30 32 32 33 33 32 32 32 31 30 30 29 28 28 27 26 26 25 25 25 24 24 22 21 21 20 20 19 19 19 19 19
10 11 14 16 18 13 13 19 23 29 30 30 30 31 32 31 33 32 31 31 31 30 31 29 29 28 28 27 26 26 25 25 24 24 22 21 21 20 20 20 18 18 18 18
15 12 14 16 17 14 15 20 23 27 31 31 30 31 31 30 33 32 31 32 31 31 31 30 29 28 27 27 27 26 25 25 24 24 23 21 21 20 20 20 19 18 17 17
16 15 14 14 13 13 19 27 27 29 30 32 30 29 31 32 33 30 32 32 31 31 31 30 29 28 28 27 27 26 25 25 24 24 24 21 21 20 20 19 18 17 17 16
18 16 13 14 15 14 18 23 26 28 27 25 28 31 31 32 29 27 28 29 32 32 31 30 30 28 28 27 26 26 25 25 25 25 24 23 21 20 20 19 18 17 17 16
19 17 14 15 15 15 17 20 24 27 22 24 26 27 27 28 29 25 26 27 28 29 31 30 30 28 27 27 26 26 25 25 25 25 25 24 21 20 20 19 18 17 17 16
17 15 15 15 14 12 16 19 23 22 19 23 24 24 24 24 24 25 27 27 28 29 31 31 30 28 27 27 26 26 26 25 26 25 25 25 23 22 21 19 18 17 17 16
14 15 16 17 16 14 15 19 18 17 20 22 23 23 23 24 25 26 27 27 28 29 32 31 30 28 27 27 26 26 26 26 26 26 25 24 23 22 20 19 18 18 17 16
13 12 12 14 14 13 13 16 17 19 20 21 22 23 24 25 25 26 27 27 28 29 29 32 30 28 27 27 26 26 26 26 26 26 25 23 23 21 20 19 19 18 18 17
13 14 12 13 12 12 13 15 18 19 20 21 21 22 24 24 25 26 27 28 29 30 30 32 30 28 27 27 26 26 26 26 26 25 24 23 23 21 21 20 20 20 20 18
12 12 14 13 13 13 15 16 19 19 20 20 21 21 23 24 25 26 27 28 29 30 31 32 31 29 28 27 27 27 26 27 26 25 24 23 23 22 21 22 21 22 22 21
12 13 13 13 16 15 16 17 18 18 19 20 20 21 23 24 24 25 26 27 28 29 30 31 31 29 28 27 27 27 27 27 26 25 24 23 23 22 22 21 19 20 21 22

GFSCGP_925_temp_042.txt.gz
Temp
18 16 17 18 19 20 21 22 22 24 25 25 25 25 26 27 26 26 27 28 28 28 27 28 29 31 30 30 31 31 29 27 26 23 23 23 22 22 22 22 22 22 22 21
16 16 19 20 20 19 19 19 19 21 24 24 24 25 26 27 27 28 28 28 27 25 25 26 27 27 29 29 29 28 27 25 24 23 23 23 23 22 23 23 22 22 22 21
15 18 20 19 19 19 19 19 20 20 23 24 23 23 24 26 26 27 26 26 26 26 26 26 24 23 24 26 26 26 24 23 23 23 23 22 22 23 23 22 22 21 22 21
15 17 18 19 18 20 18 21 21 21 21 20 24 21 24 26 27 28 27 27 25 25 26 25 23 19 22 23 24 24 23 22 22 23 23 22 22 21 22 22 22 22 21 21
16 17 18 18 19 20 19 21 21 22 20 20 21 20 24 24 25 25 26 25 27 28 24 24 21 21 21 22 22 22 22 22 22 22 22 22 22 22 22 22 22 21 20 20
17 18 18 18 20 20 21 20 20 21 19 19 21 20 23 24 25 26 25 25 26 25 25 23 19 20 20 21 21 21 21 21 22 22 22 22 22 21 20 20 20 20 20 20
17 17 18 19 18 19 19 17 16 16 17 19 21 21 23 23 25 26 25 26 25 24 21 19 19 19 18 18 19 20 21 20 22 22 22 22 21 21 20 20 20 20 19 19
15 14 17 19 18 17 16 16 15 16 16 19 22 20 23 25 27 27 28 27 26 24 20 20 20 19 18 18 19 20 20 20 21 21 21 21 21 20 20 20 19 19 19 19
13 15 17 18 18 18 17 16 18 17 19 18 20 22 25 26 27 27 27 25 24 22 19 19 19 18 19 18 18 19 20 20 21 21 21 21 20 20 20 20 20 19 18 18
14 12 16 17 18 18 17 18 17 16 17 17 19 20 22 24 25 25 25 26 21 20 20 19 19 18 19 18 19 20 20 20 21 21 21 21 20 20 20 20 19 18 18 18
14 12 14 15 16 16 16 16 17 16 17 18 18 20 22 23 23 24 26 24 21 21 20 20 19 19 19 18 19 20 20 20 20 21 21 20 20 20 20 19 18 18 18 18
12 10 10 13 15 17 16 15 15 15 17 17 20 21 24 23 23 24 23 22 22 21 21 20 19 19 19 19 19 19 20 20 21 21 21 20 20 19 19 19 18 18 19 18
11 10 9 11 14 14 15 16 15 14 16 18 18 20 24 24 24 26 23 22 22 21 20 20 20 19 19 19 19 19 20 21 21 21 21 20 20 19 19 19 18 18 19 18
9 10 11 9 13 14 13 15 15 14 13 18 20 20 23 25 25 26 23 22 22 22 21 20 20 20 20 20 19 19 20 21 21 21 21 20 20 19 19 18 18 18 19 19
10 10 11 11 12 13 14 14 15 14 15 13 18 17 20 23 25 26 24 23 22 22 21 21 21 20 20 20 20 20 21 21 21 20 21 20 19 19 19 18 18 18 19 19
9 10 11 11 13 14 13 15 14 15 16 16 16 16 21 22 23 24 24 24 23 22 22 22 21 21 20 20 20 20 21 21 21 20 20 19 19 19 19 18 18 18 18 18
9 10 10 11 12 14 13 15 15 17 17 17 16 19 21 21 21 21 24 24 24 23 23 22 22 22 21 21 21 20 21 21 21 20 19 20 19 19 19 18 18 18 18 17
10 10 10 10 11 11 16 15 16 16 18 18 18 19 20 20 20 19 21 25 24 24 23 23 23 22 21 22 21 22 21 21 20 20 20 19 19 19 18 18 17 17 17 17
11 10 11 11 12 13 15 13 13 14 16 17 17 20 21 19 19 19 20 21 24 24 24 23 23 22 22 21 22 22 20 20 19 19 20 19 19 19 18 18 17 17 16 16
13 12 11 11 12 13 12 13 12 13 14 16 16 18 17 18 18 17 18 20 23 24 24 23 23 22 22 21 22 21 20 19 19 19 20 20 19 19 18 18 17 16 16 15
13 12 10 11 12 12 11 9 12 15 15 13 15 16 19 18 17 19 18 19 21 24 24 24 23 22 22 21 22 21 21 19 21 21 20 20 19 19 18 17 17 16 16 15
10 11 12 11 12 12 10 11 12 12 12 13 14 17 18 17 17 19 19 20 21 22 23 24 23 22 21 21 22 20 20 23 22 21 20 20 20 19 18 17 17 16 15 14
11 10 10 9 10 10 10 10 10 11 12 13 13 16 17 17 18 18 18 19 20 21 21 24 23 21 21 21 22 21 22 24 22 21 20 20 19 18 18 17 16 15 15 14
11 12 12 10 11 12 11 11 11 11 11 12 14 18 16 17 18 18 18 20 19 21 21 23 21 21 21 21 22 23 24 23 22 20 19 20 19 18 18 17 16 15 14 14
10 10 11 12 12 12 12 11 11 11 12 13 16 17 18 18 18 17 18 19 19 21 21 23 21 20 21 21 22 24 24 23 20 19 19 18 18 18 17 17 16 16 16 16
11 11 10 10 11 11 11 12 13 11 11 13 15 16 18 18 18 19 18 18 19 20 21 22 22 21 21 22 22 24 24 23 20 18 18 18 17 17 18 17 16 16 16 16

GFSCGP_925_temp_045.txt.gz
Temp
16 15 15 17 18 19 19 20 20 21 23 24 23 23 24 25 24 25 25 26 26 23 25 27 28 29 29 29 29 30 30 29 25 21 20 20 19 19 20 21 22 22 22 22
15 16 18 18 18 18 17 17 17 19 21 22 21 22 22 23 24 25 25 25 25 26 23 25 26 26 30 28 29 29 29 27 24 22 21 21 20 20 21 21 22 22 22 22
14 16 18 18 18 18 17 17 18 18 20 21 20 21 21 23 22 24 25 23 23 23 24 25 23 23 26 26 28 26 26 25 22 22 22 21 21 21 21 21 21 22 22 21
14 16 17 17 17 17 16 19 19 19 19 18 23 19 21 23 24 25 25 25 23 22 24 22 23 21 23 25 24 23 23 22 22 22 22 22 21 20 20 21 21 21 21 21
14 16 16 16 17 18 17 18 18 19 18 18 19 17 21 22 23 24 23 24 23 25 23 23 22 20 22 22 22 21 21 21 22 22 23 22 22 21 21 21 21 21 20 20
15 17 17 16 18 18 19 19 18 18 16 15 18 18 21 21 23 24 24 22 25 23 22 21 21 19 19 20 20 20 21 21 21 22 22 22 22 21 21 21 20 19 19 19
15 16 17 18 16 17 17 15 13 14 14 16 18 18 21 21 23 23 22 22 22 22 22 20 18 17 17 18 18 19 20 20 21 21 21 21 21 22 21 21 20 19 19 19
13 13 16 18 16 15 14 14 13 15 15 17 20 18 21 23 24 25 25 24 22 22 20 20 17 16 17 17 18 18 19 19 20 21 20 21 21 21 20 20 20 20 19 19
14 14 17 17 18 16 16 14 16 15 16 16 17 19 23 23 22 23 22 23 22 21 20 18 16 16 17 17 17 18 19 19 20 20 20 20 20 20 20 20 19 19 18 18
14 12 15 16 16 17 16 17 15 13 15 15 16 18 20 21 24 24 23 22 21 20 18 16 17 17 17 17 18 19 19 19 19 20 20 20 20 20 19 19 19 18 18 18
12 12 13 14 15 15 15 15 15 15 14 15 16 16 19 21 21 22 21 22 22 20 16 17 17 17 17 17 17 18 19 19 19 20 20 20 19 20 19 19 18 18 18 18
11 10 10 12 14 16 15 15 15 15 15 17 15 17 22 22 20 21 21 22 19 18 17 17 17 17 17 17 17 17 18 19 20 20 20 20 19 19 19 18 18 18 18 18
10 9 9 10 13 14 13 14 14 13 13 15 16 18 21 20 21 21 21 21 19 18 17 17 17 17 17 17 17 17 18 20 20 20 20 19 19 19 19 18 18 18 18 18
10 9 9 9 12 12 12 13 14 13 11 16 17 18 19 21 20 20 20 21 19 18 18 18 17 17 18 18 18 18 19 20 20 20 19 19 19 19 18 18 18 18 18 18
10 10 10 10 11 12 12 12 13 13 13 12 17 17 16 17 18 20 21 20 19 19 18 18 18 18 18 18 18 18 19 20 20 19 19 19 19 19 18 18 18 18 18 18
8 8 10 11 12 13 12 12 13 13 14 14 15 15 17 18 18 21 19 21 21 20 19 19 19 19 18 18 18 18 19 19 20 19 18 18 18 18 18 18 17 18 18 19
9 9 9 10 13 11 11 13 13 14 15 15 14 15 18 18 19 20 19 19 22 21 20 20 19 19 19 19 19 18 19 20 19 19 19 19 18 18 18 17 17 18 18 17
10 9 9 9 11 10 14 14 15 15 16 16 17 17 18 17 17 18 18 18 21 21 21 20 20 20 20 20 19 20 20 19 19 19 19 18 18 18 18 17 17 17 17 17
10 10 9 10 11 13 13 12 12 12 14 15 16 16 16 18 18 19 20 19 20 22 21 21 21 20 20 19 20 19 19 19 18 19 19 18 19 18 17 17 16 16 16 16
11 11 10 9 11 12 10 11 11 10 13 13 13 14 14 16 18 18 19 18 17 22 22 21 21 21 20 19 20 19 18 18 18 19 19 19 19 18 17 17 16 16 16 16
10 10 10 10 10 12 8 8 10 13 13 11 13 14 13 15 16 17 17 18 18 21 22 22 21 20 20 20 20 18 18 18 20 20 20 19 19 18 18 17 16 16 15 15
10 10 11 10 11 11 9 8 11 11 11 12 12 13 13 15 16 17 18 18 18 18 21 22 21 21 20 20 20 18 18 21 20 20 19 19 19 18 17 17 16 15 15 14
10 10 10 9 10 10 10 8 10 10 11 11 11 12 12 14 15 16 17 18 18 18 20 22 21 19 19 20 20 18 20 21 20 20 19 19 18 18 17 16 15 14 14 14
10 11 10 10 11 9 11 10 10 11 10 11 11 11 14 14 16 16 16 17 18 19 18 22 20 19 18 20 20 21 21 21 20 19 19 19 18 18 17 16 15 14 14 13
10 10 11 11 12 11 11 11 10 10 10 11 11 12 14 15 16 15 16 16 17 18 18 20 21 20 20 20 21 21 22 21 20 19 18 18 18 18 16 16 15 15 15 15
11 10 11 11 11 10 10 11 10 9 9 10 11 12 15 16 16 16 16 15 18 19 20 20 20 20 20 20 21 21 22 21 20 17 17 17 17 17 17 15 14 15 15 15

GFSCGP_925_temp_048.txt.gz
Temp
14 14 15 17 18 19 18 19 19 21 21 22 22 22 23 22 22 24 24 25 26 25 25 25 28 29 30 30 29 29 28 27 25 21 20 19 19 18 18 19 19 20 19 19
14 14 16 18 17 17 17 17 17 18 20 20 20 19 19 21 21 21 23 23 23 23 21 23 25 27 27 28 30 30 27 25 26 24 21 21 19 19 20 20 20 20 20 20
12 15 17 17 17 16 16 16 17 18 19 19 19 19 20 21 20 21 22 22 21 22 21 22 22 24 27 27 28 28 26 24 24 22 21 21 19 19 18 18 19 20 20 20
13 15 16 16 16 16 15 17 18 18 18 16 20 18 20 21 21 21 22 23 23 20 21 22 21 21 25 28 26 26 24 22 21 21 21 21 20 18 19 20 20 20 20 20
14 16 15 15 16 16 16 19 17 18 17 17 18 16 19 20 19 21 22 23 23 21 22 20 20 21 25 25 24 22 21 21 20 21 22 21 20 20 21 20 20 20 21 21
14 16 16 16 17 17 18 16 16 16 15 13 16 17 19 20 21 22 22 22 20 20 19 19 19 21 21 21 20 19 19 19 20 21 22 22 21 20 20 20 20 20 20 20
14 14 15 17 16 16 17 13 12 13 12 15 17 16 20 20 21 21 21 20 19 19 19 18 19 18 17 17 17 18 19 18 20 21 21 21 21 21 21 20 19 19 19 18
12 13 15 16 15 14 13 13 12 14 13 15 17 16 19 20 22 23 23 20 20 19 18 18 18 17 16 16 17 18 18 18 19 20 20 20 21 21 21 21 20 19 19 19
11 13 14 16 17 16 14 13 14 14 15 14 15 17 19 21 22 22 21 21 20 19 18 19 18 15 16 16 17 18 18 19 19 20 20 20 21 21 20 20 19 19 19 18
12 13 14 16 16 16 15 15 14 11 14 14 15 16 18 19 20 22 20 19 19 19 18 17 15 15 16 16 17 18 19 19 19 20 20 20 20 20 20 20 19 19 18 18
11 11 12 14 14 14 14 14 14 13 12 14 15 15 16 19 21 21 19 18 18 17 15 15 16 16 16 16 16 17 18 18 18 19 19 19 19 19 19 19 19 18 17 17
10 9 10 11 13 13 14 14 13 13 14 15 13 14 18 19 18 18 18 19 20 16 16 17 17 16 16 16 16 16 17 18 18 19 19 19 19 19 18 18 18 17 17 17
11 9 9 11 13 12 12 13 13 12 11 12 15 15 18 18 19 18 17 19 18 17 16 17 17 17 16 16 16 16 17 18 18 19 19 19 19 18 18 18 17 17 17 17
11 9 9 9 12 11 11 12 12 11 11 13 15 16 18 19 19 17 18 18 17 17 16 17 17 17 16 16 16 16 17 18 18 19 19 19 19 18 18 17 17 18 18 18
10 10 10 10 10 11 11 11 11 11 13 12 15 15 16 16 16 17 17 18 18 17 16 16 16 16 16 16 17 17 18 18 19 19 19 19 18 18 17 17 17 18 18 18
9 9 9 10 11 11 11 12 12 12 12 13 13 13 15 16 17 17 18 18 19 19 18 17 17 17 17 17 17 17 17 18 19 19 18 18 18 17 17 17 17 18 17 18
9 9 9 9 11 11 10 11 12 13 13 13 12 14 15 16 16 17 18 18 18 19 19 18 18 18 17 17 17 17 18 19 18 18 18 18 17 17 17 17 17 17 17 17
9 8 9 9 8 9 13 13 13 13 13 14 14 15 16 16 15 16 16 17 18 19 19 19 18 18 18 18 18 18 19 18 18 18 18 17 17 17 17 17 17 16 16 17
9 10 9 8 8 11 13 11 11 11 12 14 14 14 15 15 14 15 17 18 17 18 19 19 19 18 18 18 18 18 17 18 18 17 18 17 17 17 17 16 16 16 16 16
9 10 9 9 10 11 10 9 9 10 12 12 13 13 14 14 14 17 17 18 17 19 19 19 19 18 18 18 18 17 17 17 17 18 18 18 18 18 17 17 16 16 15 16
9 9 9 10 10 10 9 9 8 12 12 11 12 12 13 13 13 13 14 15 17 18 19 19 19 18 18 18 18 17 16 17 19 19 19 18 18 18 17 17 16 15 15 15
9 10 11 10 10 11 10 8 9 8 9 11 12 12 12 12 12 13 15 16 17 19 19 20 19 18 18 18 18 16 17 19 19 19 19 18 18 17 17 16 15 15 15 14
9 10 10 9 10 10 10 7 7 8 9 11 11 11 11 12 12 14 15 16 17 17 18 19 19 17 17 18 19 17 18 19 19 19 19 19 18 17 17 16 15 14 14 13
10 10 10 11 11 11 10 10 9 9 9 10 10 11 11 12 13 14 14 16 17 17 18 19 18 17 16 18 19 20 19 19 19 19 18 18 17 16 16 15 14 14 14 13
9 9 11 11 12 11 11 10 10 10 10 10 10 11 11 12 14 14 14 15 17 18 18 19 19 18 18 18 19 20 20 20 19 19 18 17 17 16 15 14 14 14 14 15
9 10 10 10 11 10 10 10 10 10 10 10 10 11 12 13 15 15 15 15 17 18 18 18 18 18 18 19 19 20 21 20 19 17 17 17 17 16 15 14 14 14 15 14